Time,TemperatureF,DewpointF,PressureIn,WindDirection,WindDirectionDegrees,WindSpeedMPH,WindSpeedGustMPH,Humidity,HourlyPrecipIn,Conditions,Clouds,dailyrainin,SolarRadiationWatts/m^2,SoftwareType,DateUTC
2013-05-07 00:02:00,50.0,50.0,-100.00,NNE,17,2.0,4.0,99,0.06,,,0.16,0.000000,,2013-05-07 04:02:00,
2013-05-07 00:23:00,50.0,50.0,-100.00,NNE,17,2.0,4.0,99,0.06,,,0.16,0.000000,,2013-05-07 04:23:00,
2013-05-07 00:33:00,50.0,50.0,-100.00,NNE,17,2.0,4.0,99,0.06,,,0.16,0.000000,,2013-05-07 04:33:00,
2013-05-07 00:42:00,50.0,50.0,-100.00,NNE,17,2.0,4.0,99,0.06,,,0.16,0.000000,,2013-05-07 04:42:00,
2013-05-07 00:53:00,50.0,50.0,-100.00,NNE,17,2.0,4.0,99,0.06,,,0.16,0.000000,,2013-05-07 04:53:00,
2013-05-07 01:02:00,50.0,50.0,-100.00,North,351,1.0,4.0,99,0.01,,,0.17,0.000000,,2013-05-07 05:02:00,
2013-05-07 01:32:00,50.0,50.0,-100.00,North,351,1.0,4.0,99,0.01,,,0.17,0.000000,,2013-05-07 05:32:00,
2013-05-07 01:42:00,50.0,50.0,-100.00,North,351,1.0,4.0,99,0.01,,,0.17,0.000000,,2013-05-07 05:42:00,
2013-05-07 01:52:00,50.0,50.0,-100.00,North,351,1.0,4.0,99,0.01,,,0.17,0.000000,,2013-05-07 05:52:00,
2013-05-07 02:02:00,50.0,50.0,-100.00,North,355,1.0,2.0,99,0.01,,,0.18,0.000000,,2013-05-07 06:02:00,
2013-05-07 02:22:00,50.0,50.0,-100.00,North,355,1.0,2.0,99,0.01,,,0.18,0.000000,,2013-05-07 06:22:00,
2013-05-07 02:32:00,50.0,50.0,-100.00,North,355,1.0,2.0,99,0.01,,,0.18,0.000000,,2013-05-07 06:32:00,
2013-05-07 02:42:00,50.0,50.0,-100.00,North,355,1.0,2.0,99,0.01,,,0.18,0.000000,,2013-05-07 06:42:00,
2013-05-07 02:52:00,50.0,50.0,-100.00,North,355,1.0,2.0,99,0.01,,,0.18,0.000000,,2013-05-07 06:52:00,
2013-05-07 03:02:00,50.0,50.0,-100.00,North,6,2.0,3.0,100,0.03,,,0.21,0.000000,,2013-05-07 07:02:00,
2013-05-07 03:32:00,50.0,50.0,-100.00,North,6,2.0,3.0,100,0.03,,,0.21,0.000000,,2013-05-07 07:32:00,
2013-05-07 03:42:00,50.0,50.0,-100.00,North,6,2.0,3.0,100,0.03,,,0.21,0.000000,,2013-05-07 07:42:00,
2013-05-07 03:53:00,50.0,50.0,-100.00,North,6,2.0,3.0,100,0.03,,,0.21,0.000000,,2013-05-07 07:53:00,
2013-05-07 04:32:00,50.0,50.0,-100.00,North,11,2.0,3.0,100,0.04,,,0.25,0.000000,,2013-05-07 08:32:00,
2013-05-07 04:42:00,50.0,50.0,-100.00,North,11,2.0,3.0,100,0.04,,,0.25,0.000000,,2013-05-07 08:42:00,
2013-05-07 04:52:00,50.0,50.0,-100.00,North,11,2.0,3.0,100,0.04,,,0.25,0.000000,,2013-05-07 08:52:00,
2013-05-07 05:01:00,50.0,50.0,-100.00,North,11,2.0,3.0,100,0.04,,,0.25,0.000000,,2013-05-07 09:01:00,
2013-05-07 05:02:00,49.0,49.0,-100.00,North,349,2.0,3.0,100,0.04,,,0.29,0.000000,,2013-05-07 09:02:00,
2013-05-07 05:33:00,49.0,49.0,-100.00,North,349,2.0,3.0,100,0.04,,,0.29,0.000000,,2013-05-07 09:33:00,
2013-05-07 05:43:00,49.0,49.0,-100.00,North,349,2.0,3.0,100,0.04,,,0.29,0.000000,,2013-05-07 09:43:00,
2013-05-07 05:52:00,49.0,49.0,-100.00,North,349,2.0,3.0,100,0.04,,,0.29,0.000000,,2013-05-07 09:52:00,
2013-05-07 06:02:00,49.0,49.0,-100.00,NNE,17,2.0,3.0,100,0.00,,,0.29,0.000000,,2013-05-07 10:02:00,
2013-05-07 06:23:00,49.0,49.0,-100.00,NNE,17,2.0,3.0,100,0.00,,,0.29,0.000000,,2013-05-07 10:23:00,
2013-05-07 06:33:00,49.0,49.0,-100.00,NNE,17,2.0,3.0,100,0.00,,,0.29,0.000000,,2013-05-07 10:33:00,
2013-05-07 06:42:00,49.0,49.0,-100.00,NNE,17,2.0,3.0,100,0.00,,,0.29,0.000000,,2013-05-07 10:42:00,
2013-05-07 06:52:00,49.0,49.0,-100.00,NNE,17,2.0,3.0,100,0.00,,,0.29,0.000000,,2013-05-07 10:52:00,
2013-05-07 07:02:00,49.0,49.0,-100.00,SW,228,1.0,4.0,100,0.00,,,0.29,1.000000,,2013-05-07 11:02:00,
2013-05-07 07:32:00,49.0,49.0,-100.00,SW,228,1.0,4.0,100,0.00,,,0.29,1.000000,,2013-05-07 11:32:00,
2013-05-07 07:42:00,49.0,49.0,-100.00,SW,228,1.0,4.0,100,0.00,,,0.29,1.000000,,2013-05-07 11:42:00,
2013-05-07 07:52:00,49.0,49.0,-100.00,SW,228,1.0,4.0,100,0.00,,,0.29,1.000000,,2013-05-07 11:52:00,
2013-05-07 08:02:00,49.0,49.0,-100.00,NE,44,0.0,2.0,100,0.00,,,0.29,17.000000,,2013-05-07 12:02:00,
2013-05-07 08:22:00,49.0,49.0,-100.00,NE,44,0.0,2.0,100,0.00,,,0.29,17.000000,,2013-05-07 12:22:00,
2013-05-07 08:32:00,49.0,49.0,-100.00,NE,44,0.0,2.0,100,0.00,,,0.29,17.000000,,2013-05-07 12:32:00,
2013-05-07 08:42:00,49.0,49.0,-100.00,NE,44,0.0,2.0,100,0.00,,,0.29,17.000000,,2013-05-07 12:42:00,
2013-05-07 08:52:00,49.0,49.0,-100.00,NE,44,0.0,2.0,100,0.00,,,0.29,17.000000,,2013-05-07 12:52:00,
2013-05-07 09:02:00,54.0,53.0,-100.00,South,170,1.0,2.0,98,0.00,,,-99.99,159.000000,,2013-05-07 13:02:00,
2013-05-07 09:32:00,54.0,53.0,-100.00,South,170,1.0,2.0,98,0.00,,,-99.99,159.000000,,2013-05-07 13:32:00,
2013-05-07 09:42:00,54.0,53.0,-100.00,South,170,1.0,2.0,98,0.00,,,-99.99,159.000000,,2013-05-07 13:42:00,
2013-05-07 09:52:00,54.0,53.0,-100.00,South,170,1.0,2.0,98,0.00,,,-99.99,159.000000,,2013-05-07 13:52:00,
2013-05-07 10:32:00,57.0,52.0,-100.00,WSW,238,1.0,4.0,82,0.00,,,0.27,372.000000,,2013-05-07 14:32:00,
2013-05-07 10:42:00,57.0,52.0,-100.00,WSW,238,1.0,4.0,82,0.00,,,0.27,372.000000,,2013-05-07 14:42:00,
2013-05-07 10:52:00,57.0,52.0,-100.00,WSW,238,1.0,4.0,82,0.00,,,0.27,372.000000,,2013-05-07 14:52:00,
2013-05-07 11:01:00,57.0,52.0,-100.00,WSW,238,1.0,4.0,82,0.00,,,0.27,372.000000,,2013-05-07 15:01:00,
2013-05-07 11:02:00,63.0,52.0,-100.00,NNW,343,2.0,4.0,67,0.00,,,0.27,546.000000,,2013-05-07 15:02:00,
2013-05-07 11:33:00,63.0,52.0,-100.00,NNW,343,2.0,4.0,67,0.00,,,0.27,546.000000,,2013-05-07 15:33:00,
2013-05-07 11:43:00,63.0,52.0,-100.00,NNW,343,2.0,4.0,67,0.00,,,0.27,546.000000,,2013-05-07 15:43:00,
2013-05-07 11:53:00,63.0,52.0,-100.00,NNW,343,2.0,4.0,67,0.00,,,0.27,546.000000,,2013-05-07 15:53:00,
2013-05-07 14:02:00,66.0,52.0,-100.00,WSW,247,2.0,7.0,61,-99.99,,,0.27,525.000000,,2013-05-07 18:02:00,
2013-05-07 14:32:00,66.0,52.0,-100.00,WSW,247,2.0,7.0,61,-99.99,,,0.27,525.000000,,2013-05-07 18:32:00,
2013-05-07 14:42:00,66.0,52.0,-100.00,WSW,247,2.0,7.0,61,-99.99,,,0.27,525.000000,,2013-05-07 18:42:00,
2013-05-07 14:52:00,66.0,52.0,-100.00,WSW,247,2.0,7.0,61,-99.99,,,0.27,525.000000,,2013-05-07 18:52:00,
2013-05-07 15:02:00,67.0,52.0,-100.00,West,278,2.0,9.0,59,0.00,,,0.27,709.000000,,2013-05-07 19:02:00,
2013-05-07 15:32:00,67.0,52.0,-100.00,West,278,2.0,9.0,59,0.00,,,0.27,709.000000,,2013-05-07 19:32:00,
2013-05-07 15:42:00,67.0,52.0,-100.00,West,278,2.0,9.0,59,0.00,,,0.27,709.000000,,2013-05-07 19:42:00,
2013-05-07 15:52:00,67.0,52.0,-100.00,West,278,2.0,9.0,59,0.00,,,0.27,709.000000,,2013-05-07 19:52:00,
2013-05-07 16:02:00,69.0,53.0,-100.00,WSW,237,3.0,10.0,56,0.00,,,0.27,624.000000,,2013-05-07 20:02:00,
2013-05-07 16:32:00,69.0,53.0,-100.00,WSW,237,3.0,10.0,56,0.00,,,0.27,624.000000,,2013-05-07 20:32:00,
2013-05-07 16:42:00,69.0,53.0,-100.00,WSW,237,3.0,10.0,56,0.00,,,0.27,624.000000,,2013-05-07 20:42:00,
2013-05-07 16:52:00,69.0,53.0,-100.00,WSW,237,3.0,10.0,56,0.00,,,0.27,624.000000,,2013-05-07 20:52:00,
2013-05-07 17:02:00,67.0,53.0,-100.00,SSW,204,3.0,10.0,61,0.00,,,0.24,414.000000,,2013-05-07 21:02:00,
2013-05-07 17:22:00,67.0,53.0,-100.00,SSW,204,3.0,10.0,61,0.00,,,0.24,414.000000,,2013-05-07 21:22:00,
2013-05-07 17:33:00,67.0,53.0,-100.00,SSW,204,3.0,10.0,61,0.00,,,0.24,414.000000,,2013-05-07 21:33:00,
2013-05-07 17:43:00,67.0,53.0,-100.00,SSW,204,3.0,10.0,61,0.00,,,0.24,414.000000,,2013-05-07 21:43:00,
2013-05-07 17:53:00,67.0,53.0,-100.00,SSW,204,3.0,10.0,61,0.00,,,0.24,414.000000,,2013-05-07 21:53:00,
2013-05-07 18:02:00,65.0,49.0,-100.00,WSW,237,3.0,7.0,56,0.00,,,0.24,124.000000,,2013-05-07 22:02:00,
2013-05-07 18:33:00,65.0,49.0,-100.00,WSW,237,3.0,7.0,56,0.00,,,0.24,124.000000,,2013-05-07 22:33:00,
2013-05-07 18:42:00,65.0,49.0,-100.00,WSW,237,3.0,7.0,56,0.00,,,0.24,124.000000,,2013-05-07 22:42:00,
2013-05-07 18:52:00,65.0,49.0,-100.00,WSW,237,3.0,7.0,56,0.00,,,0.24,124.000000,,2013-05-07 22:52:00,
2013-05-07 19:02:00,65.0,49.0,-100.00,West,276,3.0,10.0,57,0.00,,,0.24,274.000000,,2013-05-07 23:02:00,
2013-05-07 19:22:00,65.0,49.0,-100.00,West,276,3.0,10.0,57,0.00,,,0.24,274.000000,,2013-05-07 23:22:00,
2013-05-07 19:32:00,65.0,49.0,-100.00,West,276,3.0,10.0,57,0.00,,,0.24,274.000000,,2013-05-07 23:32:00,
2013-05-07 19:42:00,65.0,49.0,-100.00,West,276,3.0,10.0,57,0.00,,,0.24,274.000000,,2013-05-07 23:42:00,
2013-05-07 19:52:00,65.0,49.0,-100.00,West,276,3.0,10.0,57,0.00,,,0.24,274.000000,,2013-05-07 23:52:00,
2013-05-07 20:02:00,62.0,51.0,-100.00,NNW,341,3.0,9.0,68,0.00,,,0.24,46.000000,,2013-05-08 00:02:00,
2013-05-07 20:22:00,62.0,51.0,-100.00,NNW,341,3.0,9.0,68,0.00,,,0.24,46.000000,,2013-05-08 00:22:00,
2013-05-07 20:32:00,62.0,51.0,-100.00,NNW,341,3.0,9.0,68,0.00,,,0.24,46.000000,,2013-05-08 00:32:00,
2013-05-07 20:42:00,62.0,51.0,-100.00,NNW,341,3.0,9.0,68,0.00,,,0.24,46.000000,,2013-05-08 00:42:00,
2013-05-07 20:52:00,62.0,51.0,-100.00,NNW,341,3.0,9.0,68,0.00,,,0.24,46.000000,,2013-05-08 00:52:00,
2013-05-07 21:02:00,56.0,53.0,-100.00,SW,217,2.0,12.0,91,0.02,,,0.26,1.000000,,2013-05-08 01:02:00,
2013-05-07 21:32:00,56.0,53.0,-100.00,SW,217,2.0,12.0,91,0.02,,,0.26,1.000000,,2013-05-08 01:32:00,
2013-05-07 21:42:00,56.0,53.0,-100.00,SW,217,2.0,12.0,91,0.02,,,0.26,1.000000,,2013-05-08 01:42:00,
2013-05-07 21:52:00,56.0,53.0,-100.00,SW,217,2.0,12.0,91,0.02,,,0.26,1.000000,,2013-05-08 01:52:00,
2013-05-07 22:02:00,56.0,55.0,-100.00,NE,48,1.0,4.0,95,0.00,,,0.26,0.000000,,2013-05-08 02:02:00,
2013-05-07 22:32:00,56.0,55.0,-100.00,NE,48,1.0,4.0,95,0.00,,,0.26,0.000000,,2013-05-08 02:32:00,
2013-05-07 22:42:00,56.0,55.0,-100.00,NE,48,1.0,4.0,95,0.00,,,0.26,0.000000,,2013-05-08 02:42:00,
2013-05-07 22:52:00,56.0,55.0,-100.00,NE,48,1.0,4.0,95,0.00,,,0.26,0.000000,,2013-05-08 02:52:00,
2013-05-07 23:02:00,56.0,55.0,-100.00,West,274,2.0,5.0,95,0.00,,,0.21,0.000000,,2013-05-08 03:02:00,
2013-05-07 23:22:00,56.0,55.0,-100.00,West,274,2.0,5.0,95,0.00,,,0.21,0.000000,,2013-05-08 03:22:00,
2013-05-07 23:33:00,56.0,55.0,-100.00,West,274,2.0,5.0,95,0.00,,,0.21,0.000000,,2013-05-08 03:33:00,
2013-05-07 23:43:00,56.0,55.0,-100.00,West,274,2.0,5.0,95,0.00,,,0.21,0.000000,,2013-05-08 03:43:00,
2013-05-07 23:52:00,56.0,55.0,-100.00,West,274,2.0,5.0,95,0.00,,,0.21,0.000000,,2013-05-08 03:52:00,